Location: D�rnast
(49.6426°N, 11.9755°E)
Time: 02:18:23
(UTC+00:00)

Landsat 5 - Pass Details

Date: 24 January 2021
Orbit: 527 x 654 km, 98.2° (Epoch: 24 February)

Event Time Altitude Azimuth Distance (km) Brightness Sun altitude
Rises 16:25:43 0° 15° (NNE) 2,740 6.5 -5.4°
Reaches altitude 10° 16:27:53 10° 17° (NNE) 1,825 5.6 -5.7°
Maximum altitude 16:31:48 75° 103° (ESE) 560 3.2 -6.3°
Drops below altitude 10° 16:35:37 10° 190° (S) 1,774 6.4 -6.9°
Sets 16:37:42 0° 192° (SSW) 2,655 7.3 -7.2°
